Voltar ao catálogo

STARLINK-34644

AtivoComunicaçõesVLEO
NORAD 64812·PAYLOAD·🇺🇸 United States

Lançado Jul 16, 2025 de Vandenberg Space Force Base

Loading…

Próximas Passagens (próximas 24 horas)

TLE

AtualizadoSource: CelesTrak SupGP

Época: Sep 15, 2026, 02:30 UTC

1 64812C 25150Y   26258.10465278  .00025173  00000+0  21096-2 0  2585
2 64812  70.0031  16.9333 0003347 268.1017 196.4853 14.98316918    18

Acompanhe STARLINK-34644 em tempo real com AllMySat

Download on the App Store